Project,Study,Ord_Occ,Event_Num,Cast_ID,Date_Time_UTC,Date_Time_PST,Lat_Dec,Lon_Dec,Sta_ID,Line,Sta,Depth,Pressure,PrQ,Temp1,Temp1Q,Temp2,Temp2Q,TempAve,Salt1,Salt1Q,Salt1_Corr,Salt2,Salt2Q,Salt2_Corr,SaltAve_Corr,Ox1,Ox1Q,Ox1_CruiseCorr,Ox1_StaCorr,Ox2,Ox2Q,Ox2_CruiseCorr,Ox2_StaCorr,OxAve_StaCorr,Ox1uM,Ox1uM_CruiseCorr,Ox1uM_StaCorr,Ox2uM,Ox2uM_CruiseCorr,Ox2uM_StaCorr,OxAveuM_StaCorr,FluorV,FluorQ,EstChl_CruiseCorr,EstChl_StaCorr,ISUSV,ISUSQ,EstNO3_CruiseCorr,EstNO3_StaCorr,SigThetaTS1,SigThetaTS1Q,SigThetaTS2,SigThetaTS2Q,BAT,XMiss,TransQ,pH,pHQ,SPAR,SPARQ,PAR,PARQ,PoT1,PoT2,DynHt,SVA,OxSat1,OxSat2,BTL_Depth,BTL_Temp,SaltB,OxB,OxBuM,Chl-a,Phaeo,NO3,NO2,NH4,PO4,SIL
CalCOFI,2101RL,057,,2101_057u,30-Jan-2021 07:30:50,29-Jan-2021 23:30:50,33.57743,-120.75220,083.3 060.0,083.3,060.0,516.000,520.343,,6.0107,,6.0115,,6.0111,34.3191,,34.3249,34.3168,,34.3188,34.3219,0.2663,,0.2786,0.2843,0.2632,,0.2775,0.2863,0.2853,11.582,12.3842,12.4431,11.448,13.3318,12.5320,12.4876,0.0327,,,, ,, , ,27.0190,,27.0171,,0.7370,83.1727,,,,3.6947E+00,,1.0000E-12,,5.9653,5.9661,0.8702,110.317,3.839,3.794,,,,,,,,,,,,
CalCOFI,2101RL,057,,2101_057u,30-Jan-2021 07:30:51,29-Jan-2021 23:30:51,33.57745,-120.75220,083.3 060.0,083.3,060.0,515.000,519.333,,6.0225,,6.0249,,6.0237,34.3184,,34.3242,34.3161,,34.3181,34.3212,0.2621,,0.2742,0.2799,0.2694,,0.2841,0.2930,0.2865,11.396,12.1895,12.2466,11.716,13.1249,12.8205,12.5336,0.0326,,,, ,, , ,27.0169,,27.0148,,0.7373,83.1658,,,,3.6947E+00,,1.0000E-12,,5.9771,5.9795,0.8702,110.513,3.778,3.884,515,,34.3189,0.277,12.07,,,,,,,
CalCOFI,2101RL,057,,2101_057u,30-Jan-2021 07:30:53,29-Jan-2021 23:30:53,33.57746,-120.75218,083.3 060.0,083.3,060.0,514.000,518.323,,6.0312,,6.0334,,6.0323,34.3176,,34.3234,34.3152,,34.3172,34.3203,0.2622,,0.2743,0.2800,0.2698,,0.2846,0.2934,0.2867,11.400,12.1937,12.2508,11.731,13.1294,12.8367,12.5438,0.0331,,,, ,, , ,27.0152,,27.0131,,0.7371,83.1701,,,,3.6947E+00,,1.0000E-12,,5.9859,5.9880,0.8702,110.668,3.780,3.890,,,,,,,,,,,,
CalCOFI,2101RL,057,,2101_057u,30-Jan-2021 07:31:13,29-Jan-2021 23:31:13,33.57746,-120.75216,083.3 060.0,083.3,060.0,513.000,517.314,,6.0310,,6.0318,,6.0314,34.3178,,34.3236,34.3156,,34.3176,34.3206,0.2631,,0.2753,0.2809,0.2650,,0.2795,0.2882,0.2846,11.441,12.2366,12.2942,11.525,13.1750,12.6149,12.4546,0.0327,,,, ,, , ,27.0154,,27.0136,,0.7371,83.1702,,,,3.6947E+00,,1.0000E-12,,5.9857,5.9865,0.8731,110.639,3.794,3.821,,,,,,,,,,,,
CalCOFI,2101RL,057,,2101_057u,30-Jan-2021 07:31:39,29-Jan-2021 23:31:39,33.57746,-120.75214,083.3 060.0,083.3,060.0,512.000,516.304,,6.0323,,6.0337,,6.0330,34.3176,,34.3234,34.3151,,34.3171,34.3203,0.2639,,0.2761,0.2818,0.2646,,0.2790,0.2878,0.2848,11.476,12.2733,12.3311,11.506,13.2139,12.5944,12.4628,0.0329,,,, ,, , ,27.0151,,27.0129,,0.7365,83.1820,,,,3.6947E+00,,1.0000E-12,,5.9871,5.9885,0.8770,110.657,3.806,3.815,,,,,,,,,,,,
CalCOFI,2101RL,057,,2101_057u,30-Jan-2021 07:31:40,29-Jan-2021 23:31:40,33.57746,-120.75214,083.3 060.0,083.3,060.0,511.000,515.294,,6.0346,,6.0382,,6.0364,34.3170,,34.3228,34.3143,,34.3163,34.3196,0.2644,,0.2766,0.2823,0.2791,,0.2944,0.3034,0.2929,11.497,12.2953,12.3533,12.139,13.2373,13.2759,12.8146,0.0329,,,, ,, , ,27.0143,,27.0116,,0.7371,83.1701,,,,3.6947E+00,,1.0000E-12,,5.9895,5.9931,0.8770,110.717,3.812,4.026,,,,,,,,,,,,
CalCOFI,2101RL,057,,2101_057u,30-Jan-2021 07:31:41,29-Jan-2021 23:31:41,33.57746,-120.75214,083.3 060.0,083.3,060.0,510.000,514.285,,6.0454,,6.0519,,6.0487,34.3162,,34.3220,34.3133,,34.3153,34.3187,0.2675,,0.2799,0.2856,0.2712,,0.2860,0.2949,0.2903,11.631,12.4355,12.4948,11.792,13.3863,12.9023,12.6986,0.0332,,,, ,, , ,27.0122,,27.0091,,0.7371,83.1702,,,,3.6947E+00,,1.0000E-12,,6.0004,6.0069,0.8770,110.910,3.858,3.912,,,,,,,,,,,,
CalCOFI,2101RL,057,,2101_057u,30-Jan-2021 07:31:42,29-Jan-2021 23:31:42,33.57746,-120.75214,083.3 060.0,083.3,060.0,509.000,513.275,,6.0547,,6.0603,,6.0575,34.3155,,34.3213,34.3126,,34.3146,34.3180,0.2683,,0.2807,0.2864,0.2684,,0.2831,0.2919,0.2892,11.666,12.4722,12.5318,11.671,13.4252,12.7721,12.6520,0.0321,,,, ,, , ,27.0105,,27.0075,,0.7371,83.1702,,,,3.6947E+00,,1.0000E-12,,6.0098,6.0153,0.8770,111.072,3.871,3.872,,,,,,,,,,,,
CalCOFI,2101RL,057,,2101_057u,30-Jan-2021 07:31:42,29-Jan-2021 23:31:42,33.57746,-120.75214,083.3 060.0,083.3,060.0,508.000,512.265,,6.0634,,6.0694,,6.0664,34.3144,,34.3202,34.3121,,34.3141,34.3172,0.2716,,0.2842,0.2899,0.2713,,0.2861,0.2950,0.2925,11.813,12.6260,12.6871,11.795,13.5887,12.9056,12.7964,0.0337,,,, ,, , ,27.0085,,27.0059,,0.7371,83.1702,,,,3.6947E+00,,1.0000E-12,,6.0185,6.0245,0.8770,111.254,3.920,3.915,,,,,,,,,,,,
CalCOFI,2101RL,057,,2101_057u,30-Jan-2021 07:31:43,29-Jan-2021 23:31:43,33.57746,-120.75214,083.3 060.0,083.3,060.0,507.000,511.256,,6.0801,,6.0827,,6.0814,34.3146,,34.3204,34.3120,,34.3140,34.3172,0.2750,,0.2877,0.2935,0.2813,,0.2968,0.3058,0.2997,11.958,12.7778,12.8402,12.231,13.7499,13.3750,13.1076,0.0326,,,, ,, , ,27.0066,,27.0042,,0.7371,83.1702,,,,3.6947E+00,,1.0000E-12,,6.0352,6.0378,0.8770,111.439,3.970,4.060,,,,,,,,,,,,
CalCOFI,2101RL,057,,2101_057u,30-Jan-2021 07:31:45,29-Jan-2021 23:31:45,33.57747,-120.75214,083.3 060.0,083.3,060.0,506.000,510.246,,6.0939,,6.0927,,6.0933,34.3147,,34.3205,34.3126,,34.3146,34.3176,0.2704,,0.2829,0.2886,0.2723,,0.2872,0.2961,0.2924,11.761,12.5716,12.6322,11.840,13.5308,12.9540,12.7931,0.0328,,,, ,, , ,27.0049,,27.0034,,0.7370,83.1731,,,,3.6947E+00,,1.0000E-12,,6.0491,6.0478,0.8770,111.601,3.905,3.932,,,,,,,,,,,,
CalCOFI,2101RL,057,,2101_057u,30-Jan-2021 07:31:47,29-Jan-2021 23:31:47,33.57748,-120.75214,083.3 060.0,083.3,060.0,505.000,509.237,,6.1057,,6.1047,,6.1052,34.3146,,34.3204,34.3126,,34.3146,34.3175,0.2693,,0.2817,0.2875,0.2767,,0.2919,0.3008,0.2942,11.712,12.5203,12.5804,12.034,13.4763,13.1629,12.8717,0.0328,,,, ,, , ,27.0034,,27.0019,,0.7371,83.1699,,,,3.6947E+00,,1.0000E-12,,6.0610,6.0600,0.8770,111.749,3.890,3.997,,,,,,,,,,,,
CalCOFI,2101RL,057,,2101_057u,30-Jan-2021 07:31:48,29-Jan-2021 23:31:48,33.57748,-120.75212,083.3 060.0,083.3,060.0,504.000,508.227,,6.1031,,6.1032,,6.1032,34.3152,,34.3210,34.3131,,34.3151,34.3181,0.2694,,0.2819,0.2876,0.2730,,0.2880,0.2968,0.2922,11.713,12.5214,12.5815,11.871,13.4774,12.9874,12.7845,0.0323,,,, ,, , ,27.0042,,27.0024,,0.7371,83.1702,,,,3.6947E+00,,1.0000E-12,,6.0584,6.0585,0.8770,111.657,3.890,3.943,,,,,,,,,,,,
CalCOFI,2101RL,057,,2101_057u,30-Jan-2021 07:31:49,29-Jan-2021 23:31:49,33.57748,-120.75212,083.3 060.0,083.3,060.0,503.000,507.217,,6.1102,,6.1038,,6.1070,34.3151,,34.3209,34.3135,,34.3155,34.3182,0.2693,,0.2817,0.2875,0.2730,,0.2880,0.2968,0.2922,11.709,12.5172,12.5772,11.871,13.4730,12.9874,12.7823,0.0322,,,, ,, , ,27.0031,,27.0026,,0.7365,83.1833,,,,3.6947E+00,,1.0000E-12,,6.0656,6.0592,0.8770,111.751,3.890,3.943,,,,,,,,,,,,
CalCOFI,2101RL,057,,2101_057u,30-Jan-2021 07:31:50,29-Jan-2021 23:31:50,33.57748,-120.75212,083.3 060.0,083.3,060.0,502.000,506.208,,6.1165,,6.1238,,6.1202,34.3156,,34.3214,34.3129,,34.3149,34.3182,0.2722,,0.2848,0.2905,0.2746,,0.2897,0.2986,0.2946,11.835,12.6491,12.7103,11.941,13.6131,13.0628,12.8866,0.0333,,,, ,, , ,27.0027,,26.9997,,0.7371,83.1704,,,,3.6947E+00,,1.0000E-12,,6.0720,6.0792,0.8770,111.784,3.932,3.968,,,,,,,,,,,,
CalCOFI,2101RL,057,,2101_057u,30-Jan-2021 07:31:51,29-Jan-2021 23:31:51,33.57748,-120.75212,083.3 060.0,083.3,060.0,501.000,505.198,,6.1296,,6.1338,,6.1317,34.3145,,34.3203,34.3117,,34.3137,34.3170,0.2777,,0.2905,0.2963,0.2792,,0.2945,0.3035,0.2999,12.074,12.8993,12.9628,12.140,13.8789,13.2770,13.1199,0.0333,,,, ,, , ,27.0001,,26.9974,,0.7371,83.1702,,,,3.6947E+00,,1.0000E-12,,6.0851,6.0893,0.8770,112.024,4.013,4.035,,,,,,,,,,,,
CalCOFI,2101RL,057,,2101_057u,30-Jan-2021 07:31:52,29-Jan-2021 23:31:52,33.57748,-120.75212,083.3 060.0,083.3,060.0,500.000,504.188,,6.1389,,6.1424,,6.1407,34.3128,,34.3186,34.3098,,34.3118,34.3152,0.2767,,0.2895,0.2953,0.2758,,0.2909,0.2999,0.2976,12.033,12.8563,12.9195,11.995,13.8333,13.1209,13.0202,0.0330,,,, ,, , ,26.9976,,26.9948,,0.7372,83.1695,,,,3.6947E+00,,1.0000E-12,,6.0945,6.0979,0.8770,112.259,4.000,3.987,,,,,,,,,,,,
CalCOFI,2101RL,057,,2101_057u,30-Jan-2021 07:31:53,29-Jan-2021 23:31:53,33.57748,-120.75212,083.3 060.0,083.3,060.0,499.000,503.179,,6.1438,,6.1415,,6.1427,34.3106,,34.3164,34.3095,,34.3115,34.3140,0.2834,,0.2965,0.3023,0.2847,,0.3004,0.3094,0.3059,12.325,13.1620,13.2279,12.379,14.1580,13.5343,13.3811,0.0325,,,, ,, , ,26.9952,,26.9947,,0.7371,83.1702,,,,3.6947E+00,,1.0000E-12,,6.0994,6.0972,0.8770,112.473,4.097,4.115,,,,,,,,,,,,
CalCOFI,2101RL,057,,2101_057u,30-Jan-2021 07:31:54,29-Jan-2021 23:31:54,33.57748,-120.75212,083.3 060.0,083.3,060.0,498.000,502.169,,6.1413,,6.1447,,6.1430,34.3111,,34.3169,34.3083,,34.3103,34.3136,0.2872,,0.3005,0.3063,0.2911,,0.3072,0.3163,0.3113,12.488,13.3326,13.4001,12.660,14.3393,13.8369,13.6185,0.0317,,,, ,, , ,26.9960,,26.9933,,0.7374,83.1650,,,,3.6947E+00,,1.0000E-12,,6.0971,6.1004,0.8770,112.387,4.151,4.209,,,,,,,,,,,,
CalCOFI,2101RL,057,,2101_057u,30-Jan-2021 07:31:55,29-Jan-2021 23:31:55,33.57748,-120.75212,083.3 060.0,083.3,060.0,497.000,501.160,,6.1548,,6.1576,,6.1562,34.3073,,34.3131,34.3051,,34.3071,34.3101,0.2884,,0.3017,0.3076,0.2865,,0.3023,0.3114,0.3095,12.540,13.3871,13.4550,12.458,14.3971,13.6194,13.5372,0.0322,,,, ,, , ,26.9912,,26.9891,,0.7375,83.1612,,,,3.6947E+00,,1.0000E-12,,6.1106,6.1134,0.8770,112.833,4.170,4.143,,,,,,,,,,,,
CalCOFI,2101RL,057,,2101_057u,30-Jan-2021 07:31:56,29-Jan-2021 23:31:56,33.57748,-120.75212,083.3 060.0,083.3,060.0,496.000,500.150,,6.1589,,6.1626,,6.1608,34.3066,,34.3124,34.3040,,34.3060,34.3092,0.2881,,0.3014,0.3073,0.2853,,0.3010,0.3101,0.3087,12.530,13.3766,13.4444,12.406,14.3860,13.5634,13.5039,0.0335,,,, ,, , ,26.9901,,26.9876,,0.7371,83.1700,,,,3.6947E+00,,1.0000E-12,,6.1148,6.1185,0.8770,112.930,4.167,4.126,,,,,,,,,,,,
CalCOFI,2101RL,057,,2101_057u,30-Jan-2021 07:31:57,29-Jan-2021 23:31:57,33.57748,-120.75212,083.3 060.0,083.3,060.0,495.000,499.141,,6.1633,,6.1673,,6.1653,34.3056,,34.3114,34.3025,,34.3045,34.3080,0.2923,,0.3058,0.3117,0.2966,,0.3130,0.3222,0.3170,12.709,13.5640,13.6335,12.896,14.5850,14.0910,13.8623,0.0327,,,, ,, , ,26.9888,,26.9858,,0.7371,83.1702,,,,3.6947E+00,,1.0000E-12,,6.1193,6.1232,0.8770,113.045,4.227,4.289,,,,,,,,,,,,
CalCOFI,2101RL,057,,2101_057u,30-Jan-2021 07:31:58,29-Jan-2021 23:31:58,33.57748,-120.75212,083.3 060.0,083.3,060.0,494.000,498.131,,6.1668,,6.1695,,6.1682,34.3038,,34.3096,34.3007,,34.3027,34.3062,0.2973,,0.3111,0.3170,0.2946,,0.3109,0.3201,0.3186,12.928,13.7932,13.8648,12.812,14.8285,14.0005,13.9327,0.0325,,,, ,, , ,26.9869,,26.9841,,0.7370,83.1717,,,,3.6947E+00,,1.0000E-12,,6.1228,6.1255,0.8770,113.212,4.300,4.261,,,,,,,,,,,,
CalCOFI,2101RL,057,,2101_057u,30-Jan-2021 07:31:59,29-Jan-2021 23:31:59,33.57748,-120.75212,083.3 060.0,083.3,060.0,493.000,497.121,,6.1646,,6.1643,,6.1645,34.3022,,34.3080,34.2986,,34.3006,34.3043,0.3029,,0.3169,0.3229,0.3018,,0.3185,0.3278,0.3254,13.171,14.0476,14.1215,13.125,15.0988,14.3375,14.2295,0.0339,,,, ,, , ,26.9859,,26.9831,,0.7364,83.1845,,,,3.6947E+00,,1.0000E-12,,6.1207,6.1204,0.8770,113.286,4.381,4.365,,,,,,,,,,,,
CalCOFI,2101RL,057,,2101_057u,30-Jan-2021 07:32:00,29-Jan-2021 23:32:00,33.57748,-120.75212,083.3 060.0,083.3,060.0,492.000,496.112,,6.1562,,6.1494,,6.1528,34.2973,,34.3031,34.2927,,34.2947,34.2989,0.3079,,0.3221,0.3282,0.3103,,0.3276,0.3370,0.3326,13.388,14.2748,14.3507,13.492,15.3401,14.7327,14.5417,0.0335,,,, ,, , ,26.9831,,26.9803,,0.7371,83.1703,,,,3.6947E+00,,1.0000E-12,,6.1124,6.1056,0.8770,113.527,4.452,4.485,,,,,,,,,,,,
CalCOFI,2101RL,057,,2101_057u,30-Jan-2021 07:32:01,29-Jan-2021 23:32:01,33.57748,-120.75212,083.3 060.0,083.3,060.0,491.000,495.102,,6.1449,,6.1280,,6.1365,34.2945,,34.3003,34.2868,,34.2888,34.2946,0.3107,,0.3251,0.3311,0.3193,,0.3371,0.3466,0.3389,13.513,14.4056,14.4827,13.887,15.4791,15.1580,14.8204,0.0321,,,, ,, , ,26.9823,,26.9784,,0.7370,83.1727,,,,3.6947E+00,,1.0000E-12,,6.1013,6.0845,0.8770,113.573,4.492,4.614,,,,,,,,,,,,
CalCOFI,2101RL,057,,2101_057u,30-Jan-2021 07:32:02,29-Jan-2021 23:32:02,33.57748,-120.75212,083.3 060.0,083.3,060.0,490.000,494.093,,6.1119,,6.0989,,6.1054,34.2854,,34.2912,34.2792,,34.2812,34.2862,0.3148,,0.3294,0.3355,0.3117,,0.3291,0.3385,0.3370,13.689,14.5898,14.6686,13.554,15.6748,14.7994,14.7340,0.0326,,,, ,, , ,26.9793,,26.9760,,0.7361,83.1926,,,,3.6947E+00,,1.0000E-12,,6.0686,6.0556,0.8770,113.801,4.547,4.500,,,,,,,,,,,,
CalCOFI,2101RL,057,,2101_057u,30-Jan-2021 07:32:03,29-Jan-2021 23:32:03,33.57748,-120.75212,083.3 060.0,083.3,060.0,489.000,493.083,,6.1013,,6.1077,,6.1045,34.2828,,34.2886,34.2821,,34.2841,34.2864,0.3192,,0.3340,0.3401,0.3166,,0.3343,0.3437,0.3419,13.882,14.7919,14.8725,13.766,15.8894,15.0277,14.9501,0.0323,,,, ,, , ,26.9785,,26.9771,,0.7365,83.1822,,,,3.6947E+00,,1.0000E-12,,6.0580,6.0644,0.8770,113.845,4.610,4.572,,,,,,,,,,,,
CalCOFI,2101RL,057,,2101_057u,30-Jan-2021 07:32:05,29-Jan-2021 23:32:05,33.57746,-120.75212,083.3 060.0,083.3,060.0,488.000,492.074,,6.0661,,6.0653,,6.0657,34.2724,,34.2782,34.2706,,34.2726,34.2754,0.3246,,0.3396,0.3458,0.3248,,0.3430,0.3526,0.3492,14.116,15.0368,15.1196,14.127,16.1496,15.4164,15.2680,0.0324,,,, ,, , ,26.9748,,26.9734,,0.7361,83.1926,,,,3.6947E+00,,1.0000E-12,,6.0231,6.0223,0.8770,114.143,4.683,4.686,,,,,,,,,,,,
CalCOFI,2101RL,057,,2101_057u,30-Jan-2021 07:32:06,29-Jan-2021 23:32:06,33.57746,-120.75212,083.3 060.0,083.3,060.0,487.000,491.064,,6.0746,,6.0732,,6.0739,34.2745,,34.2803,34.2719,,34.2739,34.2771,0.3286,,0.3438,0.3500,0.3256,,0.3438,0.3534,0.3517,14.289,15.2179,15.3024,14.161,16.3420,15.4530,15.3777,0.0336,,,, ,, , ,26.9753,,26.9735,,0.7364,83.1847,,,,3.6947E+00,,1.0000E-12,,6.0316,6.0303,0.8770,114.085,4.741,4.699,,,,,,,,,,,,
CalCOFI,2101RL,057,,2101_057u,30-Jan-2021 07:32:06,29-Jan-2021 23:32:06,33.57746,-120.75212,083.3 060.0,083.3,060.0,486.000,490.055,,6.0629,,6.0588,,6.0609,34.2715,,34.2773,34.2681,,34.2701,34.2737,0.3302,,0.3455,0.3517,0.3342,,0.3530,0.3627,0.3572,14.359,15.2912,15.3763,14.535,16.4198,15.8557,15.6160,0.0326,,,, ,, , ,26.9745,,26.9723,,0.7360,83.1938,,,,3.6947E+00,,1.0000E-12,,6.0201,6.0160,0.8770,114.141,4.763,4.821,,,,,,,,,,,,
CalCOFI,2101RL,057,,2101_057u,30-Jan-2021 07:32:07,29-Jan-2021 23:32:07,33.57746,-120.75212,083.3 060.0,083.3,060.0,485.000,489.045,,6.0602,,6.0577,,6.0590,34.2699,,34.2757,34.2669,,34.2689,34.2723,0.3300,,0.3453,0.3515,0.3307,,0.3492,0.3589,0.3552,14.349,15.2807,15.3657,14.379,16.4087,15.6877,15.5267,0.0328,,,, ,, , ,26.9735,,26.9714,,0.7360,83.1938,,,,3.6947E+00,,1.0000E-12,,6.0175,6.0150,0.8770,114.211,4.760,4.769,,,,,,,,,,,,
CalCOFI,2101RL,057,,2101_057u,30-Jan-2021 07:32:08,29-Jan-2021 23:32:08,33.57745,-120.75212,083.3 060.0,083.3,060.0,484.000,488.035,,6.0575,,6.0563,,6.0569,34.2690,,34.2748,34.2662,,34.2682,34.2715,0.3363,,0.3519,0.3581,0.3273,,0.3456,0.3552,0.3567,14.626,15.5707,15.6583,14.233,16.7168,15.5305,15.5944,0.0324,,,, ,, , ,26.9731,,26.9711,,0.7368,83.1762,,,,3.6947E+00,,1.0000E-12,,6.0148,6.0136,0.8770,114.228,4.851,4.721,,,,,,,,,,,,
CalCOFI,2101RL,057,,2101_057u,30-Jan-2021 07:32:08,29-Jan-2021 23:32:08,33.57744,-120.75212,083.3 060.0,083.3,060.0,483.000,487.026,,6.0552,,6.0550,,6.0551,34.2678,,34.2736,34.2652,,34.2672,34.2704,0.3362,,0.3518,0.3580,0.3227,,0.3407,0.3503,0.3542,14.618,15.5623,15.6499,14.033,16.7079,15.3152,15.4826,0.0316,,,, ,, , ,26.9724,,26.9705,,0.7371,83.1705,,,,3.6947E+00,,1.0000E-12,,6.0127,6.0125,0.8770,114.279,4.848,4.654,,,,,,,,,,,,
CalCOFI,2101RL,057,,2101_057u,30-Jan-2021 07:32:09,29-Jan-2021 23:32:09,33.57744,-120.75212,083.3 060.0,083.3,060.0,482.000,486.017,,6.0538,,6.0543,,6.0541,34.2663,,34.2721,34.2638,,34.2658,34.2690,0.3330,,0.3484,0.3547,0.3390,,0.3581,0.3678,0.3613,14.484,15.4221,15.5083,14.743,16.5588,16.0796,15.7940,0.0325,,,, ,, , ,26.9714,,26.9694,,0.7368,83.1770,,,,3.6947E+00,,1.0000E-12,,6.0113,6.0118,0.8770,114.358,4.803,4.889,,,,,,,,,,,,
CalCOFI,2101RL,057,,2101_057u,30-Jan-2021 07:32:10,29-Jan-2021 23:32:10,33.57744,-120.75212,083.3 060.0,083.3,060.0,481.000,485.007,,6.0548,,6.0557,,6.0553,34.2667,,34.2725,34.2645,,34.2665,34.2695,0.3302,,0.3455,0.3517,0.3339,,0.3526,0.3623,0.3570,14.359,15.2912,15.3763,14.520,16.4198,15.8395,15.6079,0.0324,,,, ,, , ,26.9716,,26.9698,,0.7362,83.1886,,,,3.6487E+00,,1.0000E-12,,6.0125,6.0134,0.8770,114.325,4.762,4.816,,,,,,,,,,,,
CalCOFI,2101RL,057,,2101_057u,30-Jan-2021 07:32:12,29-Jan-2021 23:32:12,33.57746,-120.75212,083.3 060.0,083.3,060.0,480.000,483.997,,6.0573,,6.0569,,6.0571,34.2660,,34.2718,34.2649,,34.2669,34.2694,0.3355,,0.3510,0.3573,0.3306,,0.3491,0.3588,0.3581,14.590,15.5330,15.6203,14.375,16.6767,15.6834,15.6519,0.0329,,,, ,, , ,26.9707,,26.9699,,0.7367,83.1786,,,,3.6964E+00,,1.0000E-12,,6.0150,6.0147,0.8770,114.399,4.839,4.767,,,,,,,,,,,,
CalCOFI,2101RL,057,,2101_057u,30-Jan-2021 07:32:13,29-Jan-2021 23:32:13,33.57746,-120.75212,083.3 060.0,083.3,060.0,479.000,482.988,,6.0568,,6.0576,,6.0572,34.2660,,34.2718,34.2638,,34.2658,34.2688,0.3364,,0.3520,0.3583,0.3311,,0.3497,0.3593,0.3588,14.630,15.5749,15.6626,14.399,16.7212,15.7092,15.6859,0.0329,,,, ,, , ,26.9708,,26.9689,,0.7367,83.1793,,,,3.6947E+00,,1.0000E-12,,6.0146,6.0155,0.8770,114.377,4.852,4.776,,,,,,,,,,,,
CalCOFI,2101RL,057,,2101_057u,30-Jan-2021 07:32:14,29-Jan-2021 23:32:14,33.57745,-120.75212,083.3 060.0,083.3,060.0,478.000,481.978,,6.0599,,6.0604,,6.0602,34.2638,,34.2696,34.2618,,34.2638,34.2667,0.3389,,0.3546,0.3609,0.3426,,0.3619,0.3717,0.3663,14.736,15.6858,15.7745,14.897,16.8391,16.2454,16.0100,0.0330,,,, ,, , ,26.9687,,26.9670,,0.7362,83.1886,,,,3.6947E+00,,1.0000E-12,,6.0178,6.0183,0.8770,114.569,4.888,4.941,,,,,,,,,,,,
CalCOFI,2101RL,057,,2101_057u,30-Jan-2021 07:32:16,29-Jan-2021 23:32:16,33.57744,-120.75212,083.3 060.0,083.3,060.0,477.000,480.969,,6.0604,,6.0609,,6.0607,34.2637,,34.2695,34.2615,,34.2635,34.2665,0.3424,,0.3583,0.3646,0.3427,,0.3620,0.3718,0.3682,14.889,15.8460,15.9361,14.903,17.0092,16.2519,16.0940,0.0326,,,, ,, , ,26.9685,,26.9667,,0.7360,83.1940,,,,3.6947E+00,,1.0000E-12,,6.0184,6.0189,0.8770,114.571,4.938,4.943,,,,,,,,,,,,
CalCOFI,2101RL,057,,2101_057u,30-Jan-2021 07:32:17,29-Jan-2021 23:32:17,33.57744,-120.75212,083.3 060.0,083.3,060.0,476.000,479.959,,6.0623,,6.0637,,6.0630,34.2627,,34.2685,34.2601,,34.2621,34.2653,0.3461,,0.3621,0.3685,0.3422,,0.3615,0.3713,0.3699,15.049,16.0135,16.1051,14.883,17.1871,16.2304,16.1678,0.0326,,,, ,, , ,26.9674,,26.9652,,0.7360,83.1938,,,,3.6947E+00,,1.0000E-12,,6.0204,6.0218,0.8770,114.657,4.992,4.937,,,,,,,,,,,,
CalCOFI,2101RL,057,,2101_057u,30-Jan-2021 07:32:17,29-Jan-2021 23:32:17,33.57744,-120.75212,083.3 060.0,083.3,060.0,475.000,478.950,,6.0665,,6.0685,,6.0675,34.2619,,34.2677,34.2598,,34.2618,34.2648,0.3465,,0.3625,0.3689,0.3385,,0.3575,0.3673,0.3681,15.067,16.0323,16.1241,14.721,17.2072,16.0559,16.0900,0.0330,,,, ,, , ,26.9663,,26.9643,,0.7360,83.1938,,,,3.6947E+00,,1.0000E-12,,6.0246,6.0267,0.8770,114.757,4.998,4.884,,,,,,,,,,,,
CalCOFI,2101RL,057,,2101_057u,30-Jan-2021 07:32:18,29-Jan-2021 23:32:18,33.57744,-120.75212,083.3 060.0,083.3,060.0,474.000,477.941,,6.0734,,6.0847,,6.0791,34.2611,,34.2669,34.2578,,34.2598,34.2634,0.3517,,0.3680,0.3744,0.3484,,0.3680,0.3779,0.3762,15.296,16.2721,16.3660,15.152,17.4618,16.5200,16.4430,0.0330,,,, ,, , ,26.9647,,26.9607,,0.7372,83.1679,,,,3.6947E+00,,1.0000E-12,,6.0317,6.0429,0.8770,114.897,5.075,5.029,,,,,,,,,,,,
CalCOFI,2101RL,057,,2101_057u,30-Jan-2021 07:32:19,29-Jan-2021 23:32:19,33.57744,-120.75212,083.3 060.0,083.3,060.0,473.000,476.931,,6.0826,,6.0966,,6.0896,34.2602,,34.2660,34.2574,,34.2594,34.2627,0.3522,,0.3685,0.3749,0.3520,,0.3719,0.3818,0.3784,15.316,16.2930,16.3871,15.308,17.4840,16.6879,16.5375,0.0329,,,, ,, , ,26.9629,,26.9589,,0.7371,83.1702,,,,3.6947E+00,,1.0000E-12,,6.0409,6.0548,0.8770,115.066,5.083,5.082,,,,,,,,,,,,
CalCOFI,2101RL,057,,2101_057u,30-Jan-2021 07:32:19,29-Jan-2021 23:32:19,33.57744,-120.75212,083.3 060.0,083.3,060.0,472.000,475.922,,6.1067,,6.1177,,6.1122,34.2611,,34.2669,34.2586,,34.2606,34.2638,0.3532,,0.3696,0.3760,0.3482,,0.3678,0.3777,0.3769,15.358,16.3370,16.4315,15.144,17.5307,16.5114,16.4715,0.0323,,,, ,, , ,26.9606,,26.9572,,0.7371,83.1702,,,,3.6947E+00,,1.0000E-12,,6.0650,6.0760,0.8770,115.301,5.099,5.030,,,,,,,,,,,,
CalCOFI,2101RL,057,,2101_057u,30-Jan-2021 07:32:20,29-Jan-2021 23:32:20,33.57744,-120.75212,083.3 060.0,083.3,060.0,471.000,474.912,,6.1216,,6.1257,,6.1237,34.2607,,34.2665,34.2584,,34.2604,34.2635,0.3501,,0.3663,0.3727,0.3560,,0.3761,0.3861,0.3794,15.225,16.1977,16.2910,15.480,17.3828,16.8731,16.5821,0.0322,,,, ,, , ,26.9583,,26.9559,,0.7361,83.1908,,,,3.6947E+00,,1.0000E-12,,6.0799,6.0840,0.8770,115.519,5.057,5.142,,,,,,,,,,,,
CalCOFI,2101RL,057,,2101_057u,30-Jan-2021 07:32:21,29-Jan-2021 23:32:21,33.57742,-120.75212,083.3 060.0,083.3,060.0,470.000,473.903,,6.1212,,6.1275,,6.1244,34.2601,,34.2659,34.2576,,34.2596,34.2628,0.3517,,0.3680,0.3744,0.3578,,0.3780,0.3880,0.3812,15.296,16.2721,16.3660,15.561,17.4618,16.9603,16.6632,0.0330,,,, ,, , ,26.9579,,26.9551,,0.7361,83.1925,,,,3.6947E+00,,1.0000E-12,,6.0796,6.0859,0.8770,115.536,5.081,5.169,,,,,,,,,,,,
CalCOFI,2101RL,057,,2101_057u,30-Jan-2021 07:32:22,29-Jan-2021 23:32:22,33.57740,-120.75212,083.3 060.0,083.3,060.0,469.000,472.893,,6.1226,,6.1247,,6.1237,34.2596,,34.2654,34.2573,,34.2593,34.2624,0.3538,,0.3702,0.3766,0.3518,,0.3716,0.3816,0.3791,15.385,16.3652,16.4600,15.301,17.5608,16.6804,16.5702,0.0334,,,, ,, , ,26.9572,,26.9552,,0.7369,83.1751,,,,3.6947E+00,,1.0000E-12,,6.0811,6.0832,0.8770,115.587,5.110,5.082,,,,,,,,,,,,
CalCOFI,2101RL,057,,2101_057u,30-Jan-2021 07:32:23,29-Jan-2021 23:32:23,33.57740,-120.75212,083.3 060.0,083.3,060.0,468.000,471.884,,6.1196,,6.1179,,6.1188,34.2605,,34.2663,34.2581,,34.2601,34.2632,0.3560,,0.3725,0.3789,0.3535,,0.3735,0.3834,0.3812,15.482,16.4668,16.5625,15.373,17.6686,16.7579,16.6602,0.0320,,,, ,, , ,26.9584,,26.9567,,0.7361,83.1926,,,,3.6947E+00,,1.0000E-12,,6.0782,6.0766,0.8770,115.465,5.142,5.106,,,,,,,,,,,,
CalCOFI,2101RL,057,,2101_057u,30-Jan-2021 07:32:24,29-Jan-2021 23:32:24,33.57742,-120.75212,083.3 060.0,083.3,060.0,467.000,470.874,,6.1185,,6.1217,,6.1201,34.2596,,34.2654,34.2563,,34.2583,34.2619,0.3630,,0.3798,0.3863,0.3687,,0.3896,0.3998,0.3931,15.788,16.7871,16.8857,16.034,18.0089,17.4696,17.1777,0.0333,,,, ,, , ,26.9578,,26.9547,,0.7365,83.1839,,,,3.6947E+00,,1.0000E-12,,6.0772,6.0804,0.8770,115.504,5.243,5.326,,,,,,,,,,,,
CalCOFI,2101RL,057,,2101_057u,30-Jan-2021 07:32:25,29-Jan-2021 23:32:25,33.57742,-120.75212,083.3 060.0,083.3,060.0,466.000,469.865,,6.1287,,6.1332,,6.1310,34.2553,,34.2611,34.2515,,34.2535,34.2573,0.3658,,0.3827,0.3893,0.3675,,0.3883,0.3985,0.3939,15.907,16.9116,17.0114,15.981,18.1412,17.4126,17.2120,0.0339,,,, ,, , ,26.9531,,26.9495,,0.7360,83.1939,,,,3.6947E+00,,1.0000E-12,,6.0875,6.0919,0.8770,115.946,5.284,5.309,,,,,,,,,,,,
CalCOFI,2101RL,057,,2101_057u,30-Jan-2021 07:32:26,29-Jan-2021 23:32:26,33.57742,-120.75212,083.3 060.0,083.3,060.0,465.000,468.855,,6.1285,,6.1404,,6.1345,34.2552,,34.2610,34.2478,,34.2498,34.2554,0.3675,,0.3845,0.3911,0.3686,,0.3895,0.3997,0.3954,15.982,16.9902,17.0906,16.028,18.2246,17.4632,17.2769,0.0330,,,, ,, , ,26.9530,,26.9456,,0.7360,83.1938,,,,3.6947E+00,,1.0000E-12,,6.0874,6.0992,0.8770,115.936,5.309,5.326,,,,,,,,,,,,
CalCOFI,2101RL,057,,2101_057u,30-Jan-2021 07:32:28,29-Jan-2021 23:32:28,33.57742,-120.75212,083.3 060.0,083.3,060.0,464.000,467.846,,6.1345,,6.1350,,6.1348,34.2522,,34.2580,34.2501,,34.2521,34.2551,0.3686,,0.3857,0.3922,0.3667,,0.3875,0.3976,0.3949,16.030,17.0404,17.1413,15.949,18.2780,17.3781,17.2597,0.0329,,,, ,, , ,26.9499,,26.9481,,0.7360,83.1938,,,,3.6947E+00,,1.0000E-12,,6.0934,6.0939,0.8770,116.220,5.326,5.298,,,,,,,,,,,,